New Bedford, MA

7:25 PM EDT on September 21, 2017 (GMT -0400)
New Bedford Regional

Weather History for KEWB - January, 2014

Change the Weather History Date:

Monday, January 20, 2014

  Actual Average Record
Temperature  
Mean Temperature 39 °F -  
Max Temperature 45 °F 35 °F 55 °F (2013)
Min Temperature 30 °F 21 °F 2 °F (1971)
Degree Days  
Heating Degree Days 26    
Moisture  
Dew Point 22 °F    
Average Humidity 53    
Maximum Humidity 62    
Minimum Humidity 42    
Precipitation  
Precipitation 0.00 in - - ()
Sea Level Pressure  
Sea Level Pressure 29.63 in    
Wind  
Wind Speed 10 mph (WSW)    
Max Wind Speed 20 mph    
Max Gust Speed 33 mph    
Visibility 10 miles    
Events      
Averages and records for this station are not official NWS values.
T = Trace of Precipitation, MM = Missing Value Source: NWS Daily Summary

Daily Weather History Graph

Daily Weather History Graph

Search for Another Location

Airport or City:

Trip Planner

Search our weather history database for the weather conditions in past years. The results will help you decide how hot, cold, wet, or windy it might be!

Date:

Astronomy

Jan. 20, 2014 Rise Set
Actual Time 7:05 AM EST 4:44 PM EST
Civil Twilight 6:35 AM EST 5:14 PM EST
Nautical Twilight 6:01 AM EST 5:48 PM EST
Astronomical Twilight 5:28 AM EST 6:21 PM EST
Moon 9:20 PM EST (1/20) 8:59 AM EST (1/20)
Length of Visible Light 10h 39m
Length of Day
9h 38m
Waning Gibbous, 83% of the Moon is Illuminated
Jan 20
Waning Gibbous
Jan 24
Last Quarter
Jan 30
New
Feb 6
First Quarter
Feb 14
Full

Hourly Weather History & Observations

Time (EST) Temp. Windchill Dew Point Humidity Pressure Visibility Wind Dir Wind Speed Gust Speed Precip Events Conditions
12:53 AM 35.1 °F 27.9 °F 23.0 °F 61% 29.60 in 10.0 mi WSW 9.2 mph - N/A   Clear
1:53 AM 35.1 °F 26.9 °F 21.9 °F 59% 29.61 in 10.0 mi WSW 11.5 mph - N/A   Clear
2:53 AM 34.0 °F 28.0 °F 21.9 °F 61% 29.61 in 10.0 mi SW 6.9 mph - N/A   Clear
3:53 AM 36.0 °F 29.6 °F 21.9 °F 57% 29.61 in 10.0 mi WSW 8.1 mph - N/A   Clear
4:53 AM 35.1 °F 28.6 °F 21.9 °F 59% 29.61 in 10.0 mi SW 8.1 mph - N/A   Clear
5:53 AM 35.1 °F 27.4 °F 21.0 °F 57% 29.60 in 10.0 mi WSW 10.4 mph - N/A   Clear
6:53 AM 35.1 °F 27.9 °F 21.0 °F 57% 29.60 in 10.0 mi WSW 9.2 mph - N/A   Clear
7:53 AM 36.0 °F 29.0 °F 21.9 °F 57% 29.60 in 10.0 mi WSW 9.2 mph - N/A   Clear
8:53 AM 37.9 °F 28.9 °F 24.1 °F 57% 29.61 in 10.0 mi SW 16.1 mph 21.9 mph N/A   Clear
9:53 AM 42.1 °F 33.9 °F 24.1 °F 49% 29.61 in 10.0 mi WSW 17.3 mph - N/A   Mostly Cloudy
10:53 AM 43.0 °F 34.5 °F 23.0 °F 45% 29.60 in 10.0 mi West 19.6 mph 33.4 mph N/A   Mostly Cloudy
11:53 AM 45.0 °F 38.5 °F 24.1 °F 44% 29.56 in 10.0 mi West 13.8 mph - N/A   Mostly Cloudy
12:53 PM 45.0 °F 38.9 °F 23.0 °F 42% 29.54 in 10.0 mi WSW 12.7 mph 19.6 mph N/A   Scattered Clouds
1:53 PM 44.1 °F 36.2 °F 24.1 °F 45% 29.52 in 10.0 mi West 18.4 mph 23.0 mph N/A   Mostly Cloudy
2:53 PM 43.0 °F 36.8 °F 24.1 °F 47% 29.52 in 10.0 mi WSW 11.5 mph - N/A   Overcast
3:53 PM 43.0 °F 38.2 °F 24.1 °F 47% 29.54 in 10.0 mi WSW 8.1 mph - N/A   Overcast
4:53 PM 42.1 °F 36.1 °F 24.1 °F 49% 29.59 in 10.0 mi West 10.4 mph - N/A   Mostly Cloudy
5:53 PM 39.9 °F 34.5 °F 24.1 °F 53% 29.62 in 10.0 mi WNW 8.1 mph - N/A   Clear
6:53 PM 37.0 °F 32.4 °F 24.1 °F 59% 29.65 in 10.0 mi West 5.8 mph - N/A   Clear
7:53 PM 37.9 °F 32.1 °F 24.1 °F 57% 29.70 in 10.0 mi WNW 8.1 mph - N/A   Partly Cloudy
8:53 PM 37.0 °F 29.3 °F 25.0 °F 62% 29.74 in 10.0 mi West 11.5 mph 17.3 mph N/A   Overcast
9:53 PM 35.1 °F 31.0 °F 21.0 °F 57% 29.78 in 10.0 mi Variable 4.6 mph - N/A   Overcast
10:53 PM 33.1 °F 25.5 °F 15.1 °F 48% 29.81 in 10.0 mi NW 9.2 mph 17.3 mph N/A   Clear
11:53 PM 30.0 °F 21.1 °F 10.9 °F 45% 29.84 in 10.0 mi WNW 10.4 mph 21.9 mph N/A   Clear